Location: Newark
(43.4306°N, 0.3089°E)
Time: 04:27:32
(UTC+00:00)

S-56A Canister/Altair - Pass Details

Date: 27 August 2019
Orbit: 633 x 2499 km, 38.9° (Epoch: 17 September)

Event Time Altitude Azimuth Distance (km) Brightness Sun altitude
Rises 21:27:16 0° 261° (W) 3,316 11.2 -26.3°
Reaches altitude 10° 21:29:59 10° 256° (WSW) 2,222 10.2 -26.6°
Enters shadow 21:32:43 29° 239° (WSW) 1,212 8.6 -27.0°
Maximum altitude 21:34:42 49° 181° (S) 830 - -27.2°
Drops below altitude 10° 21:38:59 10° 106° (ESE) 2,015 - -27.7°
Sets 21:41:20 0° 101° (E) 2,971 - -28.0°
